Weather History for Monterrey Airport, Mexico

Change the Weather History Date:

Monday, June 17, 2013

  Actual Average Record
Temperature  
Mean Temperature 88 °F -  
Max Temperature 100 °F 96 °F 109 °F (2011)
Min Temperature 75 °F 74 °F 71 °F (2003)
Cooling Degree Days 22    
Growing Degree Days 38 (Base 50)    
Moisture  
Dew Point 69 °F    
Average Humidity 55    
Maximum Humidity 78    
Minimum Humidity 35    
Precipitation  
Precipitation 0.00 in - - ()
Sea Level Pressure  
Sea Level Pressure 29.90 in    
Wind  
Wind Speed 7 mph ()    
Max Wind Speed 16 mph    
Max Gust Speed -    
Visibility 5.1 miles    
Events      
Averages and records for this station are not official NWS values.
T = Trace of Precipitation, MM = Missing Value Source: Averaged Metar Reports

Daily Weather History Graph

Daily Weather History Graph

Search for Another Location

Airport:

Trip Planner

Search our weather history database for the weather conditions in past years. The results will help you decide how hot, cold, wet, or windy it might be!

Date:

Astronomy

Jun. 17, 2013 Rise Set
Actual Time 6:49 AM CDT 8:34 PM CDT
Civil Twilight 6:23 AM CDT 9:00 PM CDT
Nautical Twilight 5:51 AM CDT 9:31 PM CDT
Astronomical Twilight 5:19 AM CDT 10:04 PM CDT
Moon 2:42 PM CDT (6/17) 1:54 AM CDT (6/17)
Length of Visible Light 14h 37m
Length of Day
13h 45m
First Quarter, 60% of the Moon is Illuminated
Jun 17
First Quarter
Jun 23
Full
Jun 29
Last Quarter
Jul 8
New
Jul 15
First Quarter

Hourly Weather History & Observations

Time (CDT) Temp. Heat Index Dew Point Humidity Pressure Visibility Wind Dir Wind Speed Gust Speed Precip Events Conditions
5:52 AM 77.0 °F - 68.0 °F 74% 29.95 in 4.0 mi East 4.6 mph - N/A   Overcast
6:42 AM 75.2 °F - 68.0 °F 78% 29.82 in 5.0 mi ESE 5.8 mph - N/A   Overcast
7:40 AM 75.2 °F - 68.0 °F 78% 29.97 in 5.0 mi ESE 9.2 mph - N/A   Mostly Cloudy
8:46 AM 78.8 °F - 68.0 °F 69% 29.98 in 5.0 mi ESE 6.9 mph - N/A   Mostly Cloudy
9:42 AM 82.4 °F 88.2 °F 73.4 °F 74% 29.85 in 5.0 mi East 8.1 mph - N/A   Mostly Cloudy
10:40 AM 86.0 °F 91.8 °F 71.6 °F 62% 30.00 in 5.0 mi Calm Calm - N/A   Mostly Cloudy
11:42 AM 89.6 °F 98.2 °F 73.4 °F 59% 30.00 in 5.0 mi ENE 4.6 mph - N/A   Scattered Clouds
12:40 PM 93.2 °F 100.5 °F 71.6 °F 49% 29.87 in 5.0 mi SE 6.9 mph - N/A   Clear
1:40 PM 95.0 °F 101.3 °F 69.8 °F 44% 29.97 in 5.0 mi East 8.1 mph - N/A   Clear
2:40 PM 96.8 °F 103.1 °F 69.8 °F 41% 29.95 in 5.0 mi East 9.2 mph - N/A   Clear
3:40 PM 98.6 °F 105.5 °F 69.8 °F 39% 29.80 in 5.0 mi East 10.4 mph - N/A   Scattered Clouds
4:40 PM 100.4 °F 106.3 °F 68.0 °F 35% 29.91 in 5.0 mi ESE 12.7 mph - N/A   Scattered Clouds
5:42 PM 100.4 °F 106.3 °F 68.0 °F 35% 29.89 in 7.0 mi East 9.2 mph - N/A   Scattered Clouds
6:42 PM 100.4 °F 106.3 °F 68.0 °F 35% 29.74 in 5.0 mi SE 13.8 mph - N/A   Scattered Clouds
7:41 PM 96.8 °F 100.7 °F 66.2 °F 37% 29.87 in 5.0 mi SE 11.5 mph - N/A   Scattered Clouds
8:40 PM 93.2 °F 97.7 °F 68.0 °F 44% 29.88 in 5.0 mi SSE 5.8 mph - N/A   Scattered Clouds
9:41 PM 89.6 °F 94.7 °F 69.8 °F 52% 29.76 in 5.0 mi East 9.2 mph - N/A   Clear
10:42 PM 84.2 °F 89.6 °F 71.6 °F 66% 29.93 in 5.0 mi SE 16.1 mph - N/A   Clear
11:43 PM 80.6 °F 83.2 °F 68.0 °F 65% 29.95 in 5.0 mi ESE 13.8 mph - N/A   Clear